Niagara Falls, NY

5:22 AM EDT on May 30, 2017 (GMT -0400)
Niagara Falls International

Weather History for KIAG - June, 2013

Change the Weather History Date:

Tuesday, June 4, 2013

  Actual Average Record
Temperature  
Mean Temperature 56 °F -  
Max Temperature 66 °F 69 °F 82 °F (1992)
Min Temperature 46 °F 49 °F 39 °F (1998)
Degree Days  
Heating Degree Days 9    
Growing Degree Days 6 (Base 50)    
Moisture  
Dew Point 40 °F    
Average Humidity 57    
Maximum Humidity 80    
Minimum Humidity 36    
Precipitation  
Precipitation 0.00 in - - ()
Sea Level Pressure  
Sea Level Pressure 30.14 in    
Wind  
Wind Speed 8 mph (WNW)    
Max Wind Speed 16 mph    
Max Gust Speed 20 mph    
Visibility 10 miles    
Events      
Averages and records for this station are not official NWS values.
T = Trace of Precipitation, MM = Missing Value Source: NWS Daily Summary

Daily Weather History Graph

Daily Weather History Graph

Search for Another Location

Airport or City:

Trip Planner

Search our weather history database for the weather conditions in past years. The results will help you decide how hot, cold, wet, or windy it might be!

Date:

Astronomy

Jun. 04, 2013 Rise Set
Actual Time 5:37 AM EDT 8:51 PM EDT
Civil Twilight 5:02 AM EDT 9:25 PM EDT
Nautical Twilight 4:17 AM EDT 10:11 PM EDT
Astronomical Twilight 3:23 AM EDT 11:05 PM EDT
Moon 3:11 AM EDT (6/4) 5:14 PM EDT (6/4)
Length of Visible Light 16h 23m
Length of Day
15h 13m
Waning Crescent, 14% of the Moon is Illuminated
Jun 4
Waning Crescent
Jun 8
New
Jun 16
First Quarter
Jun 23
Full
Jun 30
Last Quarter

Hourly Weather History & Observations

Time (EDT) Temp. Dew Point Humidity Pressure Visibility Wind Dir Wind Speed Gust Speed Precip Events Conditions
12:53 AM 46.9 °F 41.0 °F 80% 30.07 in 10.0 mi West 6.9 mph - N/A   Clear
1:53 AM 46.9 °F 41.0 °F 80% 30.08 in 10.0 mi West 8.1 mph - N/A   Clear
2:53 AM 48.9 °F 39.9 °F 71% 30.08 in 10.0 mi WNW 9.2 mph - N/A   Clear
3:53 AM 48.9 °F 37.9 °F 66% 30.08 in 10.0 mi WNW 9.2 mph - N/A   Clear
4:53 AM 50.0 °F 39.0 °F 66% 30.09 in 10.0 mi WNW 10.4 mph - N/A   Clear
5:53 AM 48.9 °F 39.0 °F 69% 30.11 in 10.0 mi NW 9.2 mph - N/A   Clear
6:53 AM 50.0 °F 39.9 °F 68% 30.13 in 10.0 mi WNW 8.1 mph - N/A   Clear
7:03 AM 50.0 °F 39.2 °F 66% 30.11 in 10.0 mi WNW 6.9 mph - N/A   Clear
7:53 AM 52.0 °F 41.0 °F 66% 30.14 in 10.0 mi NW 8.1 mph - N/A   Partly Cloudy
8:53 AM 54.0 °F 42.1 °F 64% 30.17 in 10.0 mi NNW 6.9 mph - N/A   Clear
9:53 AM 57.9 °F 37.9 °F 47% 30.18 in 10.0 mi NNE 10.4 mph 16.1 mph N/A   Partly Cloudy
10:53 AM 59.0 °F 37.0 °F 44% 30.18 in 10.0 mi NNE 8.1 mph - N/A   Partly Cloudy
11:53 AM 61.0 °F 39.0 °F 44% 30.17 in 10.0 mi Variable 6.9 mph - N/A   Partly Cloudy
12:53 PM 61.0 °F 37.0 °F 41% 30.17 in 10.0 mi West 5.8 mph - N/A   Partly Cloudy
1:53 PM 63.0 °F 39.0 °F 41% 30.15 in 10.0 mi NNW 8.1 mph - N/A   Partly Cloudy
2:53 PM 64.0 °F 37.0 °F 37% 30.16 in 10.0 mi NNW 12.7 mph - N/A   Scattered Clouds
3:53 PM 64.9 °F 37.0 °F 36% 30.15 in 10.0 mi NNW 10.4 mph - N/A   Scattered Clouds
4:53 PM 66.0 °F 37.9 °F 36% 30.14 in 10.0 mi NW 6.9 mph - N/A   Scattered Clouds
5:53 PM 66.9 °F 41.0 °F 39% 30.14 in 10.0 mi NNW 8.1 mph - N/A   Scattered Clouds
6:53 PM 64.0 °F 45.0 °F 50% 30.15 in 10.0 mi WSW 16.1 mph 19.6 mph N/A   Scattered Clouds
7:53 PM 61.0 °F 43.0 °F 52% 30.17 in 10.0 mi SW 8.1 mph - N/A   Scattered Clouds
8:53 PM 57.9 °F 44.1 °F 60% 30.17 in 10.0 mi SW 4.6 mph - N/A   Scattered Clouds
9:53 PM 55.0 °F 43.0 °F 64% 30.18 in 10.0 mi SW 3.5 mph - N/A   Scattered Clouds
10:53 PM 54.0 °F 43.0 °F 66% 30.18 in 10.0 mi Calm Calm - N/A   Partly Cloudy
11:53 PM 52.0 °F 45.0 °F 77% 30.18 in 10.0 mi Calm Calm - N/A   Clear